Miscellaneous Local Product
Issued by NWS Hastings, NE

Home | Current Version | Previous Version | Text Only | Print | Product List | Glossary Off
Versions: 1 2 3 4 5 6 7 8 9 10 11 12 13 14 15 16 17 18 19 20 21 22 23 24 25 26 27 28 29 30 31 32 33 34 35 36 37 38 39 40 41 42 43 44 45 46 47 48 49 50

000
AXUS43 KGID 210302
MISGRI

GID CWA HOURLY WEATHER ROUNDUP
NATIONAL WEATHER SERVICE HASTINGS NE
900 PM CST TUE FEB 20 2018

NOTE: "FAIR" INDICATES FEW OR NO CLOUDS BELOW 12,000 FEET WITH NO
SIGNIFICANT WEATHER AND/OR OBSTRUCTIONS TO VISIBILITY.

...SOUTH CENTRAL NEBRASKA...

CITY           SKY/WX    TMP DP  RH WIND       PRES   REMARKS
GRAND ISLAND   CLEAR     11   2  67 N10       30.36R WCI  -3
KEARNEY        CLEAR      9   2  73 N9        30.35R WCI  -4
HASTINGS       CLEAR     11   3  70 N14       30.35R WCI  -5
ORD            CLEAR      3  -2  79 NW3       30.34R
YORK           CLEAR     10   5  79 N10       30.36R WCI  -3
AURORA         CLEAR     10   3  72 N13       30.36R WCI  -5
LEXINGTON      CLEAR     10   2  72 N6        30.33R WCI   0
HOLDREGE       CLEAR      9   4  80 N7        30.33R WCI  -2
HEBRON         CLOUDY    15   8  73 N7        30.37R WCI   5

...NEBRASKA PANHANDLE...

CITY           SKY/WX    TMP DP  RH WIND       PRES   REMARKS
CHADRON        CLEAR     -7 -15  68 S8        30.24R WCI -23
ALLIANCE       CLEAR    -15 -19  82 SW7       30.19R WCI -31
SCOTTSBLUFF    CLEAR     -5 -10  79 E5        30.19R WCI -16
SIDNEY         CLEAR    -11 -17  75 SW5       30.19R WCI -23

...WESTERN AND NORTH CENTRAL NEBRASKA...

CITY           SKY/WX    TMP DP  RH WIND       PRES   REMARKS
VALENTINE      CLEAR     -8 -13  78 W6        30.31R WCI -21
AINSWORTH      CLEAR     -3  -8  79 W6        30.30S WCI -15
ONEILL         CLEAR      1  -4  79 NW8       30.35R WCI -12
BROKEN BOW     CLEAR      2  -5  72 CALM      30.31R
IMPERIAL       CLEAR      4  -2  76 W5        30.29R WCI  -5
NORTH PLATTE   CLEAR      1  -8  66 W3        30.31R
MCCOOK         CLEAR      9   2  73 N5        30.34R WCI   1

...EASTERN NEBRASKA...

CITY           SKY/WX    TMP DP  RH WIND       PRES   REMARKS
NORFOLK        CLEAR      7   1  76 NW8       30.36R WCI  -6
SO SIOUX CITY  CLEAR     10   3  73 NW14      30.39R WCI  -6
TEKAMAH        CLOUDY    12   5  73 NW13      30.40R WCI  -3
COLUMBUS       CLEAR     10   4  76 NW12      30.38R WCI  -5
ALBION         PTCLDY     7   1  76 N9        30.37R WCI  -7
OMAHA EPPLEY   CLOUDY    14   7  73 NW16G25   30.38R WCI  -2
OFFUTT AFB     MOCLDY    15   7  72 NW12      30.37R WCI   1
MILLARD        CLOUDY    15   8  71 NW8G18    30.39R WCI   5
LINCOLN        CLOUDY    15   7  70 N16       30.39R WCI  -1
NEBRASKA CITY  PTCLDY    16  11  83 N14       30.35R WCI   1
BEATRICE       CLOUDY    17  11  76 N13       30.35R WCI   4
FALLS CITY     CLOUDY    18  11  74 N12G18    30.33R WCI   5

...NORTHERN KANSAS...

CITY           SKY/WX    TMP DP  RH WIND       PRES   REMARKS
GOODLAND       PTCLDY     5   0  79 NW6       30.25R WCI  -6
HILL CITY      CLOUDY    14   3  61 N10       30.34R WCI   1
NORTON         CLEAR     10   0  61 N10       30.32R WCI  -3
PHILLIPSBURG   CLEAR     16   5  62 N10       30.36R WCI   3
SMITH CENTER   CLOUDY    14   5  67 N13       30.35R WCI   0
BELOIT         CLEAR     16   7  67 N10       30.35R WCI   3
HAYS           CLOUDY    16   5  62 N10       30.32R WCI   4
RUSSELL        CLOUDY    18   6  59 N10       30.30R WCI   6
CONCORDIA      CLOUDY    16   7  67 N14       30.34R WCI   2
SALINA         CLOUDY    21  11  65 N14       30.34R WCI   8
TOPEKA         CLOUDY    21  15  78 N9        30.34R WCI  11



USA.gov is the U.S. government's official web portal to all federal, state and local government web resources and services.